DELTA 1 DEB, 7146

Orbit data source: Space-Track

DELTA 1 DEB, 7146 is space debris in SSO originally from a launch on Tue, 06 Nov 1973 UTC launched from the Air Force Western Test Range (AFWTR). Debris objects in space refer to the collection of defunct objects orbiting the Earth. Examples of debris include non-operational satellites, rocket bodies, and fragments generated from explosions, collisions, or faulty payload assembly.

Loading next visibility...
Identifier
7146, 1973-086DL
Orbit
SSO
Country
Flag of USUS
Related business
Manufacturer
Unknown
Mission
Spacecraft
Bus & Motor
Unknown
Mass
Unknown
Launch date (UTC)
1973-11-06 (53 years ago)
Launch vehicle
Unknown
Launch site
Air Force Western Test Range (AFWTR)
Object type
Payload
Rocket body
Debris
Shape & HBR
Unknown shape, 0.2 m
Radar Cross Section
Medium (>0.1 m² and <1 m²)

Expand to show TLE details & history
Last TLE update: 8 hours ago

TLE from 8 hours ago
0 DELTA 1 DEB
1 07146U 73086DL  26265.87831403 -.00000244  00000-0 -14052-2 0  9993
2 07146 101.7456 140.7031 0061248 343.5820  79.4070 12.44373237386051
Epoch: 2026-09-22T21:04Z
TLE epoch observation values (Epoch: 2026-09-22T21:04:46.332Z)
Latitude
61.43909°
Longitude
160.43261°
Altitude
1,489.868 km
Speed
7.128 km/s
True Right ascension
07h 53m 27s
True Declination
61° 18' 28"
Sunlit
Object was in daylight at epoch
Visualization orbit readout
Latitude
Unknown
Longitude
Unknown
Altitude
Unknown
Speed
Unknown
Apparent Right ascension
Unknown
Apparent Declination
Unknown
Sunlit
N/A
Visualization observer readout
Local Sidereal Time
22:13:39
Azimuth
Unknown
Elevation
Unknown
Doppler factor
Unknown
Orbital elements
Apogee altitude
1,533.837 km
Perigee altitude
1,437.508 km
Semi-major axis
7,863.81 km
Eccentricity
0.00612
Inclination
101.7456°
RAAN
140.7031°
Arg. of periapsis
343.582°
True anomaly
80.09784°
Mean anomaly
79.407°
Eccentric anomaly
79.75233°
Mean motion
3.11239 °/min
Orbital period
115.67 mins
BSTAR
-0.0014052
Loading maneuver chart data...
Computing Atmospheric mass density...
Loading historical data...
Loading historical data...
Loading historical data...
Loading historical data...
Loading historical data...
Loading historical data...
Loading historical data...

Documentation

Showing up to 5 results
|